Regional Weather Roundup
Issued by NWS Albany, NY

Home | Current Version | Previous Version | Text Only | Print | Product List | Glossary On
Versions: 1 2 3 4 5 6 7 8 9 10 11 12 13 14 15 16 17 18 19 20 21 22 23 24 25 26 27 28 29 30 31 32 33 34 35 36 37 38 39 40 41 42 43 44 45 46 47 48 49 50
000
ASUS41 KALY 280210
RWRALY

NEW YORK STATE HOURLY WEATHER ROUNDUP
NATIONAL WEATHER SERVICE ALBANY NY
900 PM EST SAT DEC 27 2014

NOTE: "FAIR" INDICATES FEW OR NO CLOUDS BELOW 12,000 FEET WITH NO
SIGNIFICANT WEATHER AND/OR NO OBSTRUCTIONS TO VISIBILITY.

NYZ032-033-038>043-046>054-057>066-NYZ062>081-280300-
EAST


CITY           SKY/WX    TMP DP  RH WIND       PRES   REMARKS
ALBANY         MOCLDY    46  33  60 S10       30.04F
GLENS FALLS    MOCLDY    36  31  82 SW6       30.02F WCI  31
POUGHKEEPSIE   PTCLDY    37  32  82 CALM      30.10F
MONTGOMERY     PTCLDY    34  32  92 CALM      30.09F
WHITE PLAINS   CLEAR     39  32  76 CALM      30.12F
ISLIP          MOCLDY    40  37  89 CALM      30.14S
NEW YORK CITY  MOCLDY    48  36  63 S5        30.15S
CENTRAL PARK   CLEAR     52  31  44 SW8       30.16F
$$

NYZ005>009-017-018-044>046-055-056-280300-
CENTRAL


CITY           SKY/WX    TMP DP  RH WIND       PRES   REMARKS
FULTON         CLOUDY    53  37  54 S13       29.93F
SYRACUSE       CLOUDY    52  37  56 S12       29.94F
ROME           CLOUDY    48  37  65 SE7       29.99F
ELMIRA         MOCLDY    41  35  79 SW7       29.98F
BINGHAMTON     MOCLDY    45  33  63 S9        30.02F
MONTICELLO     CLOUDY    37  34  87 CALM      30.10S
$$

NYZ026>034-041>043-280300-
NORTH


CITY           SKY/WX    TMP DP  RH WIND       PRES   REMARKS
WATERTOWN      CLOUDY    54  36  50 S15G28    29.88F
FORT DRUM      NOT AVBL
MASSENA        CLOUDY    40  38  93 S3        29.83F
SARANAC LAKE   CLOUDY    41  34  76 SW15      29.86F
PLATTSBURGH    CLOUDY    41  35  79 S7        29.90F
$$

NYZ001>004-010>016-019>021-280300-
WEST


CITY           SKY/WX    TMP DP  RH WIND       PRES   REMARKS
NIAGARA FALLS  CLOUDY    50  40  68 SW20G29   29.90F
BUFFALO        CLOUDY    48  38  68 SW15G21   29.92F
DUNKIRK        CLOUDY    53  36  52 SW9       29.95S
JAMESTOWN      CLOUDY    48  30  49 SW13      29.97S
WELLSVILLE     CLOUDY    50  31  48 SW17G28   29.96F
ROCHESTER      MOCLDY    53  37  54 SW12      29.91F
PENN YAN       PTCLDY    48  37  65 SW8       29.94F
$$

             KEY
       WCI = WIND CHILL INDEX
       VSB = VISIBILITY
       HX  = HEAT INDEX
$$


USA.gov is the U.S. government's official web portal to all federal, state and local government web resources and services.